Regional Weather Roundup
Issued by NWS

Home | Current Version | Previous Version | Text Only | Print | Product List | Glossary Off
Versions: 1 2 3 4 5 6 7 8 9 10 11 12 13 14 15 16 17 18 19 20 21 22 23 24 25 26 27 28 29 30 31 32 33 34 35 36 37 38 39 40 41 42 43 44 45 46 47 48 49 50

000
ASUS43 KMKX 250810
RWRWI

WISCONSIN REGIONAL WEATHER ROUNDUP
NATIONAL WEATHER SERVICE MILWAUKEE/SULLIVAN WI
200 AM CST SUN JAN 25 2015

NOTE: "FAIR" INDICATES FEW OR NO CLOUDS BELOW 12,000 FEET WITH NO
SIGNIFICANT WEATHER AND/OR OBSTRUCTIONS TO VISIBILITY.

WIZ001-002-006>008-014>016-023>028-250900-
NORTHWEST WISCONSIN

CITY           SKY/WX    TMP DP  RH WIND       PRES   REMARKS
SUPERIOR ARPT  CLOUDY    22  14  70 E20G25    29.90R WCI   7
ASHLAND        CLOUDY    20  13  74 E8        29.90R WCI  10
HAYWARD        MOCLDY    17  10  74 E10       29.84R WCI   5
SIREN          CLOUDY    22  14  71 NE13G21   29.83R WCI  10
CUMBERLAND     CLOUDY    25  19  80 NE12      29.78R WCI  14
RICE LAKE      CLOUDY    26  19  76 N15       29.79R WCI  13
CHETEK         CLOUDY    26  19  72 NE10      29.78R WCI  17
LADYSMITH      CLOUDY    24  18  77 NE8       29.80R WCI  15
EAU CLAIRE     CLOUDY    30  22  72 NE13G21   29.74R WCI  20
MENOMONIE      CLOUDY    31  23  71 N16       29.75R WCI  20
NEW RICHMOND   CLOUDY    30  24  77 NE15G21   29.76R WCI  19
OSCEOLA        CLOUDY    29  23  78 NE12      29.80R WCI  20
$$

WIZ003>005-009-010-017-018-250900-
NORTH CENTRAL WISCONSIN

CITY           SKY/WX    TMP DP  RH WIND       PRES   REMARKS
MANITOWISH WTR FLURRIES  13   8  79 NE7       29.82R WCI   3
ARBOR VITAE    MOCLDY    17  10  75 NE3       29.81R
WOODRUFF       MOCLDY    17  10  75 NE3       29.81R
RHINELANDER    CLOUDY    14   7  73 NE8       29.81R WCI   3
EAGLE RIVER    MOCLDY    14   6  73 NE8       29.80R WCI   2
LAND O LAKES   PTCLDY    12   8  85 N3        29.83R
PHILLIPS       CLOUDY    16  11  80 NE14      29.80R WCI   2
TOMAHAWK       CLOUDY    17  11  77 NE8G16    29.80R WCI   7
MEDFORD        CLOUDY    23  17  79 NE13      29.75R WCI  11
MERRILL        CLOUDY    22  16  77 NE10G16   29.78R WCI  11
$$

WIZ029-030-035-036-043>047-250900-
CENTRAL WISCONSIN

CITY           SKY/WX    TMP DP  RH WIND       PRES   REMARKS
WAUSAU         CLOUDY    25  18  74 E13       29.76R WCI  14
MOSINEE        CLOUDY    27  23  86 E13       29.76R WCI  16
MARSHFIELD     CLOUDY    30  24  78 E12       29.74R WCI  20
STEVENS POINT  CLOUDY    25  20  82 E14       29.77R WCI  13
WAUPACA        CLOUDY    26  19  74 E10G17    29.80R WCI  16
WAUTOMA        CLOUDY    25  21  84 NE13      29.78R WCI  14
WISC RAPIDS    CLOUDY    26  21  81 E13       29.77R WCI  15
CAMP DOUGLAS   MIX PCPN  30  30 100 NE10      29.71R WCI  21
$$

WIZ011>013-019>022-031-037>040-048>050-250900-
NORTHEAST WISCONSIN

CITY           SKY/WX    TMP DP  RH WIND       PRES   REMARKS
ANTIGO         CLOUDY    17  12  81 NE17      29.79R WCI   2
SHAWANO        CLOUDY    23  14  69 NE14G21   29.84R WCI  10
OCONTO         CLOUDY    21  12  68 NE10G17   29.85R WCI  10
STURGEON BAY   CLOUDY    19  12  73 NE15G24   29.85R WCI   5
GREEN BAY      CLOUDY    22  15  75 NE20G28   29.82R WCI   7
MANITOWOC      CLOUDY    24  19  81 N9G22     29.80R WCI  14
APPLETON       CLOUDY    23  14  68 NE18G24   29.79R WCI   9
CLINTONVILLE   CLOUDY    21  14  73 NE14      29.82R WCI   8
OSHKOSH        CLOUDY    24  16  71 NE14      29.78R WCI  12
$$

WIZ032>034-041-042-053>061-250900-
SOUTHWEST WISCONSIN

CITY           SKY/WX    TMP DP  RH WIND       PRES   REMARKS
LA CROSSE      CLOUDY    37  30  75 CALM      29.68R
SPARTA         CLOUDY    33  30  91 NE13      29.70R WCI  23
VIROQUA        CLOUDY    33  32  96 E10       29.65R WCI  25
BOSCOBEL       CLOUDY    35  30  82 NE3       29.66R
PRAIRIE DU CHI CLOUDY    35  31  84 E8        29.63R WCI  29
PLATTEVILLE    CLOUDY    33  32  96 NE16      29.63R WCI  22
$$

WIZ056-057-062-063-064-067-068-250900-
SOUTH CENTRAL WISCONSIN

CITY           SKY/WX    TMP DP  RH WIND       PRES   REMARKS
REEDSBURG      CLOUDY    32  30  94 E12G18    29.68R WCI  23
BARABOO/DELLS  CLOUDY    31  29  92 E15G22    29.69R FOG     WCI  20
LONE ROCK      CLOUDY    34  30  85 E10       29.67R WCI  26
MINERAL POINT  CLOUDY    34  32  93 E13       29.63R WCI  25
MADISON        CLOUDY    32  28  85 E18       29.68R WCI  20
MIDDLETON      CLOUDY    34  32  93 E15       29.68R WCI  24
WATERTOWN      CLOUDY    29  27  90 E13       29.71R WCI  19
MONROE         CLOUDY    32  32 100 E10       29.64R WCI  24
JANESVILLE     CLOUDY    32  32 100 E9        29.67R WCI  24
$$

WIZ051-052-058>065-066-070>072-250900-
SOUTHEAST WISCONSIN

CITY           SKY/WX    TMP DP  RH WIND       PRES   REMARKS
MILWAUKEE      CLOUDY    31  26  82 NE15G25   29.72R WCI  20
WAUKESHA       CLOUDY    28  27  93 NE14G24   29.73R WCI  17
MILWAUKEE/TIMM CLOUDY    30  25  80 NE16G28   29.74R WCI  19
RACINE         CLOUDY    32  28  85 NE18      29.73R WCI  20
BURLINGTON     CLOUDY    30  28  93 NE15      29.70R WCI  19
KENOSHA        CLOUDY    32  30  92 NE14      29.70R WCI  22
FOND DU LAC    CLOUDY    26  19  74 NE14G24   29.77R WCI  14
SHEBOYGAN      CLOUDY    27  21  78 NE20      29.76R WCI  13
WEST BEND      CLOUDY    28  23  80 NE13      29.73R WCI  18
JUNEAU         CLOUDY    27  24  86 NE14G23   29.74R WCI  16
$$

LSZ147-162-250900-
LAKE SUPERIOR

STATION/POSITION TIME  TEMP    WIND        PRES    WAVE
                       AIR SEA DIR/SP/G            HT/PER
                 (UTC) (F)     (DEG/KT/KT) (MB)    (FT/S)
DEVILS ISLAND    0800   20      50/ 20/ 23 1014.8R
PORT WING        0700   21      80/  7/ 12 1012.9
SAXON HARBOR     0740   18     140/  1/  7 1012.9R
$$

LMZ867-665-643>646-250900-
LAKE MICHIGAN

STATION/POSITION TIME  TEMP    WIND        PRES    WAVE
                       AIR SEA DIR/SP/G            HT/PER
                 (UTC) (F)     (DEG/KT/KT) (MB)    (FT/S)
NORTHPORT PIER   0703   21      10/ 13/ 17 1010.5R
SISTER BAY       0713   20      30/  8/ 11   N/A
KEWAUNEE LAKESHO 0700   22      10/  8/ 17 1008.2R
SHEBOYGAN LAKESH 0800   28      30/ 25/ 27 1008.8R
PORT WASHINGTON  0715   31      40/ 18/ 25 1007.5R
MILWAUKEE LAKESH 0700   31      30/ 22/ 26   N/A
KENOSHA   LAKESH 0800   33      40/ 19/ 22 1005.8R
$$

TC  - TEMPERATURE IN CELSIUS
VSB - VISIBILITY IN STATUTE MILES
WCI - WIND CHILL INDEX
HX  - HEAT INDEX



USA.gov is the U.S. government's official web portal to all federal, state and local government web resources and services.